UKAWC Weather Map Dashboard For New York
Last update: Sat Aug 15 02:03:26 EDT 2020
[US Rad], [IR Sat], [VIS], [WW], [NatRad], [Temps], [LSI], [Wind], [QPF], [5-day], [WCI], [DewP], [Sfc loop], [Sfc/Rad], [Today], [Tom.], [NextDay], [12Hr], [24Hr], [36Hr], [36Hr], [48Hr], [60Hr], [7-day Threats] [Day 8-14 Threats] [850mb], [500mb], [Thick], ALL ,







303 
ASUS41 KBUF 141503
RWRBUF
 
BUFFALO  PARTLY SUNNY  65/18  48  54  30.13R  W 15G22


570 
ASUS41 KALY 150510
RWRALY

NEW YORK STATE HOURLY WEATHER ROUNDUP
NATIONAL WEATHER SERVICE ALBANY NY
100 AM EDT SAT AUG 15 2020

NOTE: "FAIR" INDICATES FEW OR NO CLOUDS BELOW 12,000 FEET WITH NO
SIGNIFICANT WEATHER AND/OR NO OBSTRUCTIONS TO VISIBILITY.

NYZ032-033-038>043-046>054-057>066-NYZ062>081-082-084-150600-
EAST

  
CITY           SKY/WX    TMP DP  RH WIND       PRES   REMARKS
ALBANY         CLOUDY    67  55  65 N6        30.04S                  
GLENS FALLS    CLEAR     61  57  87 CALM      30.06S                  
POUGHKEEPSIE   CLEAR     68  63  84 CALM      29.99F                  
NEWBURGH       CLEAR     68  64  88 VRB5      30.03R                  
MONTGOMERY     CLEAR     67  63  87 N3        30.01S                  
WHITE PLAINS   CLEAR     68  62  81 N3        29.99S                  
ISLIP          CLEAR     69  65  86 NE6       29.97S                  
NEW YORK CITY  PTCLDY    77  67  71 NE5       29.97S                  
CENTRAL PARK   CLEAR     75  64  68 CALM      30.01S                  
$$

NYZ005>009-017-018-044>046-055-056-150600-
CENTRAL

  
CITY           SKY/WX    TMP DP  RH WIND       PRES   REMARKS
FULTON         CLEAR     67  58  72 CALM      30.03F                  
SYRACUSE       PTCLDY    69  63  81 E6        30.03S                  
ROME           CLEAR     67  59  75 NE8       30.05S                  
ELMIRA         PTCLDY    65  61  87 CALM      30.03S                  
BINGHAMTON     CLOUDY    68  62  81 E3        30.06F                  
MONTICELLO     CLEAR     65  60  84 CALM      30.07S                  
$$

NYZ026>034-041>043-087-150600-
NORTH

  
CITY           SKY/WX    TMP DP  RH WIND       PRES   REMARKS
WATERTOWN      PTCLDY    63  55  75 NE8       30.05F                  
FORT DRUM      NOT AVBL                                               
OGDENSBURG     FAIR      54  52  94 CALM      30.07S                  
MASSENA        CLEAR     55  52  89 CALM      30.10F                  
SARANAC LAKE   CLEAR     46  43  89 CALM      30.12F                  
PLATTSBURGH    CLEAR     59  56  89 CALM      30.07F                  
$$

NYZ001>004-010>016-019>021-085-150600-
WEST

  
CITY           SKY/WX    TMP DP  RH WIND       PRES   REMARKS
NIAGARA FALLS  CLEAR     68  60  75 E8        30.04F                  
BUFFALO        PTCLDY    68  58  70 NE5       30.04F                  
DUNKIRK        CLEAR     66  54  65 NE6       30.02F                  
JAMESTOWN      CLEAR     66  54  65 E7        30.07S                  
WELLSVILLE     PTCLDY    64  56  75 CALM      30.10F                  
ROCHESTER      PTCLDY    71  60  68 E6        30.05S                  
PENN YAN       MOCLDY    68  60  75 CALM      30.05F                  
$$

             KEY
       WCI = WIND CHILL INDEX
       VSB = VISIBILITY
       HX  = HEAT INDEX
$$
  


635 
ASUS41 KBOX 150505
RWRBOX

REGIONAL WEATHER ROUNDUP
NATIONAL WEATHER SERVICE BOSTON/NORTON MA
100 AM EDT SAT AUG 15 2020

NOTE:  "FAIR" INDICATES FEW OR NO CLOUDS BELOW 12,000 FEET WITH NO 
SIGNIFICANT WEATHER AND/OR OBSTRUCTIONS TO VISIBILITY.

MAZALL-150600-
EASTERN MASSACHUSETTS
  
CITY           SKY/WX    TMP DP  RH WIND       PRES   REMARKS
BOSTON         PTCLDY    69  60  73 N9        30.00F                  
BEVERLY        CLEAR     64  61  90 N5        30.00F                  
LAWRENCE       CLEAR     64  59  83 N7        30.03F                  
BEDFORD        CLEAR     64  59  83 CALM      30.00F                  
BLUE HILL        N/A     67  58  72 NE12      30.00F                  
NORWOOD        CLEAR     62  58  86 CALM      30.00F                  
MARSHFIELD     CLEAR     70  68  94 VRB5      29.98F                  
PLYMOUTH       CLEAR     67  64  90 NE8       29.98F                  
TAUNTON        CLEAR     61  57  87 CALM      29.98F                  
NEW BEDFORD    CLEAR     66  63  90 N5        29.96F                  
$$

MAZALL-150600-
CAPE COD AND THE ISLANDS
  
CITY           SKY/WX    TMP DP  RH WIND       PRES   REMARKS
FALMOUTH       NOT AVBL                                               
HYANNIS        CLEAR     68  67  96 NW6       29.94F                  
CHATHAM        MOCLDY    71  68  90 NE6       29.96F                  
PROVINCETOWN   CLEAR     68  67  96 NE9       29.97F                  
NANTUCKET      FOG       69  68  96 NE14      29.94F VSB 1            
MARTHAS VNYRD  CLEAR     68  66  93 N6        29.94F                  
$$
 
MAZALL-150600-
CENTRAL AND WESTERN MASSACHUSETTS
  
CITY           SKY/WX    TMP DP  RH WIND       PRES   REMARKS
WORCESTER      CLEAR     69  54  58 N9        30.04F                  
FITCHBURG      CLEAR     64  55  72 NW5       30.04F                  
ORANGE         CLEAR     62  59  90 CALM      30.05F                  
SPRINGFIELD    CLEAR     63  57  80 N5        30.00F                  
WESTFIELD      CLEAR     66  59  78 CALM      30.02F                  
NORTH ADAMS    CLEAR     61  60  97 CALM      30.06F                  
PITTSFIELD     CLEAR     64  61  90 CALM      30.05F                  
$$
 
RIZALL-150600-
RHODE ISLAND
  
CITY           SKY/WX    TMP DP  RH WIND       PRES   REMARKS
PROVIDENCE     CLEAR     70  60  70 N10       29.98F                  
NEWPORT        CLEAR     69  62  78 N9        29.97F                  
BLOCK ISLAND   CLEAR     70  63  78 N9        29.96F                  
SMITHFIELD     CLEAR     65  59  81 N7        30.00F                  
WESTERLY       CLEAR     67  57  70 N5        29.97F                  
$$
 
CTZALL-150600-
CONNECTICUT
  
CITY           SKY/WX    TMP DP  RH WIND       PRES   REMARKS
BRADLEY INTL   PTCLDY    68  56  65 N7        30.00F                  
HARTFORD       CLEAR     73  55  53 N6        29.99F                  
BRIDGEPORT     CLEAR     73  63  70 N6        29.98S                  
DANBURY        CLEAR     64  62  93 CALM      30.02S                  
GROTON         CLEAR     67  57  70 N10       29.96F                  
NEW HAVEN      CLEAR     71  62  73 N3        29.98F                  
CHESTER        NOT AVBL                                               
MERIDEN        CLEAR     69  56  62 NW3       29.99F                  
WILLIMANTIC    CLEAR     65  59  81 NE3       30.00F                  
OXFORD         CLEAR     69  56  62 NE6       30.03S                  
$$

MEZ002-015-021-024-NHZ003-005-008-011-012-014-VTZ005-008-150600-
NORTHERN NEW ENGLAND
  
CITY           SKY/WX    TMP DP  RH WIND       PRES   REMARKS
PORTLAND ME    CLEAR     66  58  75 CALM      30.04F                  
BANGOR ME      MOCLDY    70  58  65 N10       30.10R                  
CONCORD NH     PTCLDY    64  56  75 CALM      30.05F                  
MANCHESTER NH  PTCLDY    70  58  65 N5        30.02F                  
NASHUA NH      CLEAR     64  59  83 NW5       30.03F                  
PORTSMOUTH NH  PTCLDY    66  56  70 N7        30.01F                  
JAFFREY NH     CLEAR     59  55  87 CALM      30.07F                  
KEENE NH       PTCLDY    63  59  87 CALM      30.06S                  
BURLINGTON VT  CLEAR     62  58  86 CALM      30.08F                  
MT. WASHINGTON PTCLDY    48  43  81 E18         N/A                   
$$

NYZ052-076-150600-
EASTERN NEW YORK
  
CITY           SKY/WX    TMP DP  RH WIND       PRES   REMARKS
ALBANY         CLOUDY    67  55  65 N6        30.04S                  
NEW YORK CITY  PTCLDY    77  67  71 NE5       29.97S                  
$$
 
ANZALL-150600-
MARINE OBSERVATIONS
  
STATION/POSITION TIME  TEMP    WIND        PRES    VSBY  WAVE
                       AIR SEA DIR/SP/G                  HT/PER
                 (UTC) (F)     (DEG/KT/KT) (MB)    (MI)  (FT/S)
BOSTON BUOY      0350   70 70   20/ 12/ 14 1014.6          2/ 3
BUZZARDS BAY     0400           20/ 12/ 14 1015.6F
NANTUCKET SOUND  0440      77   40/ 14/ 16   N/A
MASS BAY-STELLWA 0404   69      40/ 12/ 14 1013.8F  1 7/8  2/ 4
ISLE OF SHOALS   NOT AVBL
S OF BLOCK IS    0426      74                N/A           3/ 4
$$

......................KEY.........................
  SKY/WX - SKY CONDITION/PRESENT WEATHER
  TMP    - TEMPERATURE IN FAHRENHEIT
  DWPT   - DEWPOINT IN FAHRENHEIT
  RH     - RELATIVE HUMIDITY IN PERCENT
  WIND   - DIRECTION AND SPEED IN MPH
  PRES   - MEAN SEA LEVEL PRESSURE IN INCHES OF HG
  WCI    - WIND CHILL INDEX
  VSB    - VISIBILITY IN MILES
  HX     - HEAT INDEX
  TC     - TEMPERATURE IN CELSIUS
  VRB    - VARIABLE WIND DIRECTION
  N/A    - NOT AVAILABLE
  


589 
ASUS41 KPHI 150512
RWRPHI

REGIONAL WEATHER ROUNDUP
NATIONAL WEATHER SERVICE MOUNT HOLLY NJ
100 AM EDT SAT AUG 15 2020

NOTE:  "FAIR" INDICATES FEW OR NO CLOUDS BELOW 12,000 FEET WITH NO
SIGNIFICANT WEATHER AND/OR OBSTRUCTIONS TO VISIBILITY.

 * = STATION DOES NOT REPORT PRECIPITATION (E.G. RAIN, SNOW, ETC.) 
        OR FOG.

NJZ015>026-150600-
SOUTHERN NEW JERSEY
  
CITY           SKY/WX    TMP DP  RH WIND       PRES   REMARKS
POMONA         MOCLDY    70  64  81 N3        29.96S                  
WILDWOOD*      PTCLDY    70  66  87 N6        29.96S                  
MILLVILLE      MOCLDY    70  63  78 N5        29.97S                  
WRIGHTSTOWN    MOCLDY    68  62  83 N6        29.97F                  
MOUNT HOLLY    MOCLDY    67  65  93 CALM      29.97F                  
TRENTON        MOCLDY    72  62  71 CALM      29.98S                  

$$
NJZ001>014-150600-
NORTHERN NEW JERSEY
  
CITY           SKY/WX    TMP DP  RH WIND       PRES   REMARKS
SUSSEX         CLEAR     65  63  93 CALM      30.02S                  
ANDOVER*         N/A     67  65  93 CALM      30.02S                  
MORRISTOWN     PTCLDY    66  63  88 CALM      29.99S                  
NEWARK         PTCLDY    74  63  68 SW5       29.97F                  
TETERBORO      CLEAR     75  64  68 N3        29.97S                  
CALDWELL       PTCLDY    71  66  84 CALM      29.99S                  
SOMERVILLE     PTCLDY    67  65  93 CALM      29.98R                  
ALLAIRE*       PTCLDY    69  32  25 CALM      29.99S                  
TOMS RIVER*    PTCLDY    65  63  93 N5        29.97F                  

$$
PAZ043-044-047-054-055-060>062-066>071-150600-
EASTERN PENNSYLVANIA
  
CITY           SKY/WX    TMP DP  RH WIND       PRES   REMARKS
PHILADELPHIA   MOCLDY    74  61  63 NE5       29.98S                  
NORTH PHILA    MOCLDY    71  63  75 NE3       29.99F                  
BLUE BELL*     MOCLDY    66  66  97 CALM      30.00F                  
DOYLESTOWN     MOCLDY    69  64  84 CALM      29.99S                  
QUAKERTOWN*    CLEAR     68  66  94 CALM      30.01F                  
PERKASIE*      MOCLDY    64  64 100 CALM      30.02S                  
POTTSTOWN      MOCLDY    67  64  90 CALM      30.02S                  
LANCASTER      MOCLDY    72  67  84 CALM      29.99F                  
COATESVILLE    MOCLDY    68  66  94 CALM      30.02F                  
WEST CHESTER   FAIR      72  63  73 CALM      30.00F                  
READING        MOCLDY    73  68  84 N3        29.99S                  
ALLENTOWN      MOCLDY    69  63  81 CALM      30.00F                  
QN CITY/ALNTWN FAIR      70  64  83 CALM      30.01F                  
MOUNT POCONO   PTCLDY    67  59  75 NE3       30.07F                  
HAZLETON       PTCLDY    61  59  94 CALM      30.08S                  
LEHIGHTON      FAIR      63  63 100 CALM      30.02F FOG              
WILKES BARRE   MOCLDY    70  61  73 E7        30.03S                  

$$
DEZALL-MDZ008-012-015-019-020-150600-
DELAWARE AND EASTERN MARYLAND
  
CITY           SKY/WX    TMP DP  RH WIND       PRES   REMARKS
WILMINGTON     MOCLDY    72  64  76 N3        29.98F                  
DOVER          MOCLDY    73  63  69 NE8       29.96S                  
CHESWOLD       CLEAR     66  66 100 CALM      29.97F                  
GEORGETOWN     PTCLDY    72  68  87 N3        29.96S                  
EASTON         MOCLDY    72  70  94 NE5       30.00S                  
STEVENSVILLE   MOCLDY   N/A N/A N/A NE3       29.97S                  
ABERDEEN       CLOUDY    70  69  99 CALM      29.97F                  
PATUXENT       CLOUDY    76  69  79 NE8       29.95                   
OCEAN CITY     MOCLDY    75  70  84 NE8       29.94F                  
WALLOPS ISLAND   N/A     73  72  96 N6        29.94S                  
CAMBRIDGE      CLOUDY    73  70  88 N5        29.95F                  
SALISBURY      MOCLDY    72  68  87 CALM      29.94F                  

$$
PAZ001-021-NYZ056-072-MDZ011-DCZ001-150600-
OTHER NEARBY LOCATIONS
  
CITY           SKY/WX    TMP DP  RH WIND       PRES   REMARKS
HARRISBURG     MOCLDY    76  68  76 E5        29.98S                  
STATE COLLEGE  PTCLDY    71  58  64 CALM      30.03S                  
WILLIAMSPORT   CLEAR     68  62  81 CALM      30.01R                  
BINGHAMTON     CLOUDY    68  62  81 E3        30.06F                  
NEW YORK CITY  CLEAR     75  64  68 CALM      30.01S                  
BALTIMORE      CLOUDY    73  70  90 CALM      29.97F                  
WASHINGTON DC  CLOUDY    78  70  76 E3        29.97F                  

$$
  


891 
ASUS41 KGYX 150510
RWRGYX
WEATHER ROUNDUP FOR MAINE AND NEW HAMPSHIRE
NATIONAL WEATHER SERVICE GRAY ME
100 AM EDT SAT AUG 15 2020

MEZ002-005-006-010-012-015-018-020-021-024-026-027-029-150600-
MAINE
  
CITY           SKY/WX    TMP DP  RH WIND       PRES   REMARKS
PORTLAND       CLEAR     66  58  75 CALM      30.04F                  
SANFORD        CLEAR     57  55  93 CALM      30.04F                  
BAR HARBOR     CLEAR     69  61  75 NE13      30.08S                  
WISCASSET      MOCLDY    62  58  86 CALM      30.07R                  
ROCKLAND       CLEAR     69  61  75 NE9       30.06F                  
FRYEBURG       CLEAR     57  56  96 CALM      30.08S                  
LEWISTONAUBURN CLEAR     60  58  92 CALM      30.06S                  
AUGUSTA        MOCLDY    66  56  70 N6        30.08R                  
WATERVILLE     CLEAR     65  57  75 NE10      30.06R                  
BANGOR         MOCLDY    70  58  65 N10       30.10R                  
GREENVILLE       N/A     64  58  80 NE6       30.14R                  
MILLINOCKET    CLOUDY    66  58  75 NE6       30.17R                  
HOULTON        CLOUDY    63  57  81 NE7       30.16S                  
PRESQUE ISLE   CLEAR     61  55  81 NE5       30.21R                  
FRENCHVILLE    CLEAR     59  56  89 E7        30.21S                  
CARIBOU        CLEAR     61  54  77 E6        30.20S                  
$$

NHZ002-005-008-009-011-012-014-150600-
NEW HAMPSHIRE
  
CITY           SKY/WX    TMP DP  RH WIND       PRES   REMARKS
PORTSMOUTH     PTCLDY    66  56  70 N7        30.01F                  
ROCHESTER      CLEAR     64  58  80 NW8       30.04F                  
NASHUA         CLEAR     64  59  83 NW5       30.03F                  
MANCHESTER     PTCLDY    70  58  65 N5        30.02F                  
CONCORD        PTCLDY    64  56  75 CALM      30.05F                  
LACONIA        CLEAR     64  60  87 CALM      30.07S                  
PLYMOUTH       FAIR      59  58  96 MISG      30.07F FOG              
BERLIN         PTCLDY    52  50  93 CALM      30.13S                  
WHITEFIELD     CLEAR     51  48  89 CALM      30.10F                  
JAFFREY        CLEAR     59  55  87 CALM      30.07F                  
KEENE          PTCLDY    63  59  87 CALM      30.06S                  
LEBANON        MOCLDY    65  58  78 N5        30.07F                  
MT WASHINGTON  PTCLDY    48  43  81 E18         N/A                   
$$

VTZ005-007-008-150600-
VERMONT
  
CITY           SKY/WX    TMP DP  RH WIND       PRES   REMARKS
ST JOHNSBURY     N/A     58  55  90 MISG      30.08F                  
MONTPELIER     PTCLDY    57  54  89 CALM      30.14F                  
BURLINGTON     CLEAR     62  58  86 CALM      30.08F                  
$$

MAZ007-012-024-CTZ003-RIZ002-NYZ038-NYZ072-150600-
SOUTHERN NEW ENGLAND AND NY
  
CITY           SKY/WX    TMP DP  RH WIND       PRES   REMARKS
BOSTON         PTCLDY    69  60  73 N9        30.00F                  
WORCESTER      CLEAR     69  54  58 N9        30.04F                  
NANTUCKET      FOG       69  68  96 NE14      29.94F VSB 1            
PROVIDENCE     CLEAR     70  60  70 N10       29.98F                  
HARTFORD       PTCLDY    68  56  65 N7        30.00F                  
ALBANY         CLOUDY    67  55  65 N6        30.04S                  
NEW YORK CITY  PTCLDY    77  67  71 NE5       29.97S                  
$$

ANZ081-ANZ082-ANZ150-NHZ014-MEZ023>029-150600-
COASTAL MARINE OBSERVATIONS
  
STATION/POSITION TIME  TEMP    WIND        PRES    WAVE
                       AIR SEA DIR/SP/G            HT/PER
                 (UTC) (F)     (DEG/KT/KT) (MB)    (FT/S)
JEFFREYS LEDGE   0405      69                N/A     2/ 9
$$

.............KEY..............
   WCI - WIND CHILL
   TC  - TEMPERATURE IN CELSIUS
   VSB - VISIBILITY IN MILES
   HX  - HEAT INDEX
   FAIR- INDICATES FEW OR NO CLOUDS BELOW 12,000 FT, WITH NO 
         SIGNIFICANT WEATHER AND/OR OBSTRUCTIONS TO VISIBILITY.


  


247 
ASUS41 KOKX 150514
RWROKX

Regional Weather Roundup
National Weather Service New York NY
100 AM EDT SAT AUG 15 2020

Note: "FAIR" indicates few or no clouds below 12,000 feet with no
significant weather and/or obstructions to visibility.

NYZ071-072-176-178-NJZ106-104-150600-
New York City Metro Area
  
CITY           SKY/WX    TMP DP  RH WIND       PRES   REMARKS
Central Park   CLEAR     75  64  68 CALM      30.01S                  
Bronx Lehman C   N/A     75  66  73 NE3         N/A                   
LaGuardia Arpt PTCLDY    77  67  71 NE5       29.97S                  
Queens College   N/A     73  66  78 N3          N/A                   
Kennedy Intl   PTCLDY    72  65  78 N6        29.98S                  
Breezy Point     N/A     73 N/A N/A N2          N/A                   
Brooklyn Coll    N/A     77  63  61 N5          N/A                   
Staten Island    N/A     72  66  83 SE2         N/A                   
Newark/Liberty PTCLDY    74  63  68 SW5       29.97F                  
Teterboro      CLEAR     75  64  68 N3        29.97S                  
$$
 
NYZ177-179-078>081-150600-
Long Island New York
  
CITY           SKY/WX    TMP DP  RH WIND       PRES   REMARKS
Jones Beach      N/A     73 N/A N/A N6          N/A                   
Wantagh          N/A     70  64  83 N5          N/A                   
Hempstead      NOT AVBL                                               
Matinecock Pt    N/A     73 N/A N/A NE7         N/A                   
Farmingdale    CLEAR     72  63  73 N5        29.97F                  
MacArthur/ISP  CLEAR     69  65  86 NE6       29.97S                  
Shirley        CLEAR     68  61  78 CALM      29.97S                  
Mt Sinai Harb  NOT AVBL                                               
Westhampton    CLEAR     70  59  68 NE8       29.98F                  
East Hampton   FAIR      69  59  69 N3        29.96S                  
Southold         N/A     70  59  68 NE5         N/A                   
Montauk          N/A     72  63  73 N6        29.97F                  
$$
 
NYZ052-065-067-150600-
Hudson Valley
  
CITY           SKY/WX    TMP DP  RH WIND       PRES   REMARKS
White Plains   CLEAR     68  62  81 N3        29.99S                  
Larchmont Harb   N/A     72 N/A N/A N6          N/A                   
Croton On Huds   N/A     70 N/A N/A NE2         N/A                   
Somers           N/A     68  61  77 N2          N/A                   
Brewster         N/A     64  63  94 NE2         N/A                   
Newburgh       CLEAR     68  64  88 VRB5      30.03R                  
Montgomery     CLEAR     67  63  87 N3        30.01S                  
Otisville        N/A     64  63  94 NW1         N/A                   
Warwick          N/A     64  64 100 SW1         N/A                   
Suffern          N/A     68  63  83 CALM        N/A                   
Poughkeepsie   CLEAR     68  63  84 CALM      29.99F                  
Albany         CLOUDY    67  55  65 N6        30.04S                  
$$
 
NJZ001-105-106-008-010-013-015-019>022-104-150600-
New Jersey
  
CITY           SKY/WX    TMP DP  RH WIND       PRES   REMARKS
Newark/Liberty PTCLDY    74  63  68 SW5       29.97F                  
Teterboro      CLEAR     75  64  68 N3        29.97S                  
Caldwell       PTCLDY    71  66  84 CALM      29.99S                  
Somerville     PTCLDY    67  65  93 CALM      29.98R                  
Linden         FAIR      73  62  68 NW3       29.98S                  
Perth Amboy      N/A     75 N/A N/A MISG        N/A                   
Sussex         CLEAR     65  63  93 CALM      30.02S                  
Andover          N/A     67  65  93 CALM      30.02S                  
Trenton        MOCLDY    72  62  71 CALM      29.98S                  
Millville      MOCLDY    70  63  78 N5        29.97S                  
Atlantic City  MOCLDY    70  64  81 N3        29.96                   
Wrightstown    MOCLDY    68  62  83 N6        29.97                   
Toms River     PTCLDY    65  63  93 N5        29.97F                  
Belmar         PTCLDY    69  32  25 CALM      29.99S                  
$$
 
PAZ047>061-062-071-150600-
Eastern Pennsylvania
  
CITY           SKY/WX    TMP DP  RH WIND       PRES   REMARKS
Philadelphia   MOCLDY    74  61  63 NE5       29.98S                  
Allentown      MOCLDY    69  63  81 CALM      30.00F                  
Scranton       MOCLDY    70  61  73 E7        30.03S                  
$$

CTZ002-004>006-009-010-012-RIZ004-006-007-MAZ004-011-015-150600-
Southern New England

 In CT
  
CITY           SKY/WX    TMP DP  RH WIND       PRES   REMARKS
Bradley Intl   PTCLDY    68  56  65 N7        30.00F                  
Hartford       CLEAR     73  55  53 N6        29.99F                  
Danbury        CLEAR     64  62  93 CALM      30.02S                  
Wtrbury/Oxford CLEAR     69  56  62 NE6       30.03S                  
Norwalk Harbor   N/A     72 N/A N/A N7          N/A                   
Bridgeport     CLEAR     73  63  70 N6        29.98S                  
Meriden        CLEAR     69  56  62 NW3       29.99F                  
New Haven      CLEAR     71  62  73 N3        29.98F                  
Chester        FAIR      68  57  68 N5        30.00F                  
Groton         CLEAR     67  57  70 N10       29.96F                  
Willimantic    CLEAR     65  59  81 NE3       30.00F                  

 In RI
  
CITY           SKY/WX    TMP DP  RH WIND       PRES   REMARKS
Providence     CLEAR     70  60  70 N10       29.98F                  
Block Island   CLEAR     70  63  78 N9        29.96F                  
Westerly       CLEAR     67  57  70 N5        29.97F                  
 
In MA
  
CITY           SKY/WX    TMP DP  RH WIND       PRES   REMARKS
Boston         PTCLDY    69  60  73 N9        30.00F                  
Worcester      CLEAR     69  54  58 N9        30.04F                  
Westfield      CLEAR     66  59  78 CALM      30.02F                  
Provincetown   CLEAR     68  67  96 NE9       29.97F                  
Nantucket      FOG       69  68  96 NE14      29.94F VSB 1            
$$

ANZ330-335-338-340-345-350-353-355-150600-
Coastal Marine Observations

  
STATION/POSITION TIME  SKY/WX   TEMP    WIND        PRES    VSBY  WAVE
                                AIR SEA DIR/SP/G                  HT/PER
                 (UTC)          (F)     (DEG/KT/KT) (MB)    (MI)  (FT/S)
NY Harb Entrance 0450                    50/  8/ 10 1014.2          3/ 5
20 S Fire Island 0450               76   50/ 14/ 16 1013.7          4/ 5
Great South Bay  0430            75      30/ 10/ 12   N/A
23 SSW Montauk P 0450            74 76   50/ 14/ 16 1014.0          5/ 5
15 E Barnegat Li 0426               75                N/A           5/ 6
Hudson Canyon    0450               78              1013.1          6/ 6
Kings Point      0430            74      90/  2/  4 1015.9
Execution Rocks  0445            75     360/  6/  8   N/A
Western LI Sound 0445            76      10/  6/  8   N/A
Central LI Sound NOT AVBL
Robbins Reef     0430            78     290/  3/  5 1015.1
$$


>>>>>>>>>>>>>>>>>>>>>>>>>>>> KEY <<<<<<<<<<<<<<<<<<<<<<<<<<<
>                                                          <
>     SKY/WX - Sky Condition/Present Weather               <
>     TMP    - Temperature in Fahrenheit                   <
>     DP     - Dew Point in Fahrenheit                     <
>     RH     - Relative Humidity in Percent                <
>     WIND   - Direction (from) and Speed in MPH           <
>     PRES   - Mean Sea Level Pressure (inches of Hg)      <
>     WCI    - Wind Chill Index                            <
>     VSB    - Visibility in Miles                         <
>     HX     - Heat Index                                  <
>     TC     - Temperature in Celsius                      <
>     VRB    - Variable Wind Direction                     <
>                                                          <
>>>>>>>>>>>>>>>>>>>>>>>>>>>> KEY <<<<<<<<<<<<<<<<<<<<<<<<<<<
  




	7-day Forecast for central New York Short-term forecast...Sat Aug 15 00:59:47 EDT 2020

Schoharie-
Including the cities of Cobleskill and Middleburgh
1258 AM EDT Sat Aug 15 2020

.REST OF TONIGHT...Mostly clear. Lows in the upper 50s. South winds
around 5 mph. 
.SATURDAY...Mostly sunny. Highs in the upper 70s. East winds 5 to
10 mph. 
.SATURDAY NIGHT...Mostly cloudy. Lows in the upper 50s. Southeast
winds around 5 mph. 
.SUNDAY...Partly sunny. Highs in the mid 70s. Southeast winds 5 to
10 mph. 
.SUNDAY NIGHT...Mostly cloudy with a 30 percent chance of showers.
Lows around 60. South winds around 5 mph. 
.MONDAY...Mostly cloudy in the morning, then becoming partly sunny.
A chance of showers. Highs in the upper 70s. Chance of rain
40 percent. 
.MONDAY NIGHT...A chance of showers in the evening. Partly cloudy.
Lows in the upper 50s. Chance of rain 40 percent. 
.TUESDAY...Mostly sunny. Highs in the mid 70s. 
.TUESDAY NIGHT...Mostly clear. Lows in the mid 50s. 
.WEDNESDAY AND WEDNESDAY NIGHT...Partly cloudy. Highs in the upper
70s. Lows in the mid 50s. 
.THURSDAY...Partly sunny. Highs in the upper 70s. 
.THURSDAY NIGHT AND FRIDAY...Partly cloudy. Lows in the upper 50s.
Highs in the lower 80s. 






Click here for the 60 hr. forecast maps, or loop .

Over The Next 48 Hours in New York

(Click any thumbnail below to view full-sized image) or select State or Conus below
NWS North:
NWS south:
NWS West:
NWS East:

Temperature

Next 12 Hrs
Next 24 Hrs
Next 36 Hrs
Next 48 Hrs
All

Weather Conditions

Next 12 Hrs
Next 24 Hrs
Next 36 Hrs
Next 48 Hrs
All

Apparent Temperature

Next 12 Hrs
Next 24 Hrs
Next 36 Hrs
Next 48 Hrs
All

Probability of Precipitation

Next 12 Hrs
Next 24 Hrs
Next 36 Hrs
Next 48 Hrs
All

Winds

Next 12 Hrs
Next 24 Hrs
Next 36 Hrs
Next 48 Hrs
All

Sky Condition

Next 12 Hrs
Next 24 Hrs
Next 36 Hrs
Next 48 Hrs
All

Hazardous Weather

Next 12 Hrs
Next 24 Hrs
Next 36 Hrs
Next 48 Hrs
All

Weather Conditions: National

Next 12 Hrs
Next 24 Hrs
Next 36 Hrs
Next 48 Hrs
All

Forecast Maps

Now
Next 12 Hrs
Next 24 Hrs
Next 36 Hrs
Next 72 Hrs

Place Mouse Over Text to Pause....